(324) Bamberga(324) Bamberga Epoch 2008 Nov. 30.0 TT = JDT 2454800.5 Goffin M 318.79797 (2000.0) P Q n 0.22396809 Peri. 43.86582 +0.97178292 -0.21263027 a 2.6854184 Node 327.99134 +0.12531741 +0.83215291 e 0.3374052 Incl. 11.10700 +0.19983369 +0.51216199 P 4.40 H 6.82 G 0.09 U 0 From 1129 observations at 62 oppositions, 1892-1997, mean residual 0".53.An explanation of the orbital elements is available.
These orbital elements are also available in forms suitable for loading into a number of popular planetarium-type software programs.
Personalized ephemerides for this object (and others) can be generated using the MPES.
Date TT R. A. (2000) Decl. Delta r Elong. Phase V 2009 10 08 06 43.14 +36 28.6 1.644 2.006 95.7 29.7 10.8 2009 10 13 06 49.61 +36 42.3 1.607 2.022 99.2 29.2 10.8 2009 10 18 06 55.24 +36 56.1 1.570 2.038 102.9 28.5 10.7 2009 10 23 06 59.96 +37 10.3 1.534 2.055 106.7 27.6 10.6 2009 10 28 07 03.72 +37 25.0 1.499 2.072 110.8 26.6 10.6 2009 11 02 07 06.46 +37 40.2 1.465 2.089 115.1 25.5 10.5 2009 11 07 07 08.12 +37 55.8 1.433 2.106 119.5 24.2 10.4 2009 11 12 07 08.65 +38 11.6 1.403 2.123 124.2 22.7 10.4 2009 11 17 07 08.00 +38 27.0 1.376 2.141 129.0 21.0 10.3 2009 11 22 07 06.18 +38 41.6 1.352 2.159 134.0 19.2 10.2 2009 11 27 07 03.22 +38 54.3 1.332 2.177 139.2 17.2 10.1 2009 12 02 06 59.18 +39 04.2 1.317 2.195 144.4 15.2 10.0 2009 12 07 06 54.18 +39 10.5 1.306 2.213 149.6 13.0 9.9 2009 12 12 06 48.39 +39 12.1 1.301 2.231 154.7 10.9 9.9 2009 12 17 06 42.00 +39 08.2 1.303 2.250 159.2 8.9 9.8 2009 12 22 06 35.28 +38 58.4 1.310 2.269 162.8 7.4 9.8 2009 12 27 06 28.49 +38 42.5 1.324 2.287 164.6 6.6 9.8